Weather History for KVPC - September, 2012

Change the Weather History Date:

Friday, September 28, 2012

  Actual Average Record
Temperature  
Mean Temperature 72 °F 67 °F  
Max Temperature 87 °F 78 °F 87 °F (2008)
Min Temperature 59 °F 55 °F 44 °F (2001)
Degree Days  
Heating Degree Days 0 2  
Month to date heating degree days 12  
Since 1 July heating degree days 12  
Cooling Degree Days 8 3  
Month to date cooling degree days 202  
Year to date cooling degree days 1467  
Growing Degree Days 22 (Base 50)    
Moisture  
Dew Point 61 °F    
Average Humidity 75    
Maximum Humidity 100    
Minimum Humidity 37    
Precipitation  
Precipitation 0.00 in 0.13 in 1.38 in (1979)
Month to date precipitation 3.37  
Year to date precipitation 37.96  
Sea Level Pressure  
Sea Level Pressure 30.06 in    
Wind  
Wind Speed 1 mph (South)    
Max Wind Speed 6 mph    
Max Gust Speed -    
Visibility 9 miles    
Events      
T = Trace of Precipitation, MM = Missing Value Source: NWS Daily Summary

Daily Weather History Graph

Daily Weather History Graph

Search for Another Location

Airport or City:

Trip Planner

Search our weather history database for the weather conditions in past years. The results will help you decide how hot, cold, wet, or windy it might be!

Date:

Astronomy

Sep. 28, 2012 Rise Set
Actual Time 7:32 AM EDT 7:27 PM EDT
Civil Twilight 7:07 AM EDT 7:52 PM EDT
Nautical Twilight 6:38 AM EDT 8:21 PM EDT
Astronomical Twilight 6:08 AM EDT 8:50 PM EDT
Moon 6:28 PM EDT (9/28) 6:04 AM EDT (9/28)
Length of Visible Light 12h 44m
Length of Day
11h 54m
Waxing Gibbous, 98% of the Moon is Illuminated
Sep 28
Waxing Gibbous
Sep 29
Full
Oct 8
Last Quarter
Oct 15
New
Oct 21
First Quarter

Hourly Weather History & Observations

Time (EDT) Temp. Heat Index Dew Point Humidity Pressure Visibility Wind Dir Wind Speed Gust Speed Precip Events Conditions
12:53 AM 60.1 °F - 59.0 °F 96% 30.12 in 9.0 mi Calm Calm - N/A   Clear
1:53 AM 59.0 °F - 59.0 °F 100% 30.11 in 9.0 mi Calm Calm - N/A   Clear
2:53 AM 60.1 °F - 59.0 °F 96% 30.10 in 8.0 mi Calm Calm - N/A   Clear
3:53 AM 59.0 °F - 57.9 °F 96% 30.10 in 6.0 mi Calm Calm - N/A   Clear
4:53 AM 59.0 °F - 57.9 °F 96% 30.09 in 7.0 mi Calm Calm - N/A   Clear
6:53 AM 60.1 °F - 59.0 °F 96% 30.10 in 7.0 mi Calm Calm - N/A   Mostly Cloudy
7:53 AM 60.1 °F - 60.1 °F 100% 30.10 in 4.0 mi Calm Calm - N/A   Partly Cloudy
8:53 AM 64.0 °F - 63.0 °F 96% 30.12 in 7.0 mi Calm Calm - N/A   Scattered Clouds
9:53 AM 70.0 °F - 64.0 °F 81% 30.13 in 10.0 mi Calm Calm - N/A   Clear
10:53 AM 77.0 °F - 66.0 °F 69% 30.12 in 10.0 mi North 3.5 mph - N/A   Clear
11:53 AM 78.1 °F - 64.9 °F 64% 30.11 in 10.0 mi Variable 3.5 mph - N/A   Clear
12:53 PM 81.0 °F 82.7 °F 64.9 °F 58% 30.09 in 10.0 mi Variable 3.5 mph - N/A   Clear
1:53 PM 82.9 °F 83.7 °F 62.1 °F 49% 30.07 in 10.0 mi Calm Calm - N/A   Scattered Clouds
2:53 PM 84.0 °F 84.0 °F 60.1 °F 44% 30.04 in 10.0 mi Variable 4.6 mph - N/A   Mostly Cloudy
3:53 PM 86.0 °F 86.1 °F 61.0 °F 43% 30.02 in 10.0 mi Variable 5.8 mph - N/A   Scattered Clouds
4:53 PM 86.0 °F 84.9 °F 57.0 °F 37% 29.99 in 10.0 mi Calm Calm - N/A   Partly Cloudy
5:53 PM 84.0 °F 83.8 °F 59.0 °F 43% 29.99 in 10.0 mi Calm Calm - N/A   Clear
6:53 PM 81.0 °F 81.6 °F 60.1 °F 49% 29.98 in 10.0 mi Calm Calm - N/A   Clear
7:53 PM 72.0 °F - 61.0 °F 68% 30.00 in 10.0 mi Calm Calm - N/A   Clear
8:53 PM 66.9 °F - 61.0 °F 81% 30.01 in 10.0 mi Calm Calm - N/A   Clear
9:53 PM 66.9 °F - 62.1 °F 84% 30.01 in 10.0 mi Calm Calm - N/A   Clear
10:53 PM 66.0 °F - 62.1 °F 87% 30.02 in 10.0 mi Calm Calm - N/A   Clear
11:53 PM 66.0 °F - 63.0 °F 90% 30.01 in 10.0 mi Calm Calm - N/A   Clear